Regional Weather Roundup
Issued by NWS

Home | Current Version | Previous Version | Graphics & Text | Print | Product List | Glossary On
Versions: 1 2 3 4 5 6 7 8 9 10 11 12 13 14 15 16 17 18 19 20 21 22 23 24 25 26 27 28 29 30 31 32 33 34 35 36 37 38 39 40 41 42 43 44 45 46 47 48 49 50
699
ASUS45 KCYS 171710
RWRWY

WYOMING REGIONAL WEATHER ROUNDUP
NATIONAL WEATHER SERVICE CHEYENNE WY
1000 AM MST SAT FEB 17 2018

NOTE:  "FAIR" INDICATES FEW OR NO CLOUDS BELOW 12,000 FEET
WITH NO SIGNIFICANT WEATHER AND/OR OBSTRUCTIONS TO VISIBILITY.

WYZ001-171800-
YELLOWSTONE NATIONAL PARK

CITY           SKY/WX    TMP DP  RH WIND       PRES   REMARKS
LK YELLOWSTONE   N/A     18  14  84 VRB3      29.95S
W YELLOWSTONE  NOT AVBL

$$
WYZ002>013-054>058-071-098>099-171800-
NORTHERN WYOMING

CITY           SKY/WX    TMP DP  RH WIND       PRES   REMARKS
JACKSON        CLOUDY    27  19  72 S22G29    30.01S WCI  13
CODY           FAIR      34  15  46 SE10G16   29.88F WCI  26
GREYBULL       FAIR      24  18  77 E7        29.98F WCI  16
WORLAND        FAIR      17   9  70 CALM      29.96F
SHERIDAN       PTSUNNY   25  21  85 SE6       29.93F WCI  18
BUFFALO        FAIR      25  20  81 S14       29.92F WCI  13
GILLETTE       NOT AVBL
HULETT         CLOUDY    27  19  74 W5        29.96F WCI  21
NEWCASTLE      PTSUNNY   27  18  69 N5        30.02R WCI  21

$$
WYZ014>020-022>026-101>103-171800-
CENTRAL WYOMING

CITY           SKY/WX    TMP DP  RH WIND       PRES   REMARKS
BIG PINEY      FAIR      26  17  68 E7        30.06F WCI  18
PINEDALE       CLOUDY    21  16  79 CALM      30.07F
DUBOIS           N/A    N/A N/A N/A MISG        N/A
LANDER         FAIR      29  11  47 NW10      29.93F WCI  20
RIVERTON       FAIR      31   7  36 CALM      29.95F
CASPER         FAIR      34  15  46 SW18G29   29.98F WCI  23
DOUGLAS        FAIR      35  14  42 W7        30.00F WCI  29

$$
WYZ021-027>030-104>119-171800-
SOUTHERN WYOMING

CITY           SKY/WX    TMP DP  RH WIND       PRES   REMARKS
EVANSTON       FAIR      32  17  54 W23       30.12F WCI  19
FORT BRIDGER   FAIR      33  18  53 W17G29    30.16S WCI  23
ROCK SPRINGS   FAIR      33  14  45 W23G37    30.11R WCI  21
DIXON          PTSUNNY   28  14  54 SW10      30.21S WCI  19
RAWLINS        FAIR      32  13  45 SW31G45   30.05R WCI  17
SARATOGA       FAIR      32  16  51 SW25G32   30.12R WCI  19
LARAMIE        FAIR      29  13  51 W22       30.03S WCI  15
CHEYENNE       FAIR      35  10  35 W22G31    30.05R WCI  23
TORRINGTON     FAIR      38  14  37 NW9       30.05R WCI  31
PINE BLUFFS    FAIR      39   9  28 MISG      30.06R

$$




USA.gov is the U.S. government's official web portal to all federal, state and local government web resources and services.